User: anonymous   Login
Location: South Tamworth Observatory
(43.8246°N, 71.3026°W)
Time: 17:48:48
(UTC-05:00)
Language:

Cosmos 1844 - Orbit

View from above orbital plane
View from above orbital plane
View from above satellite
View from above satellite

Ground track
Ground track

The orbit data is extracted from the following two-line orbital elements,

1 17973U 87041A   14331.92293387  .00000095  00000-0  75059-4 0  8928
2 17973 070.9017 078.2536 0028721 082.7323 028.0282 14.13958768421369
Epoch (UTC): 27 November 2014 22:09:01
Eccentricity: 0.0028721
inclination: 70.9017°
perigee height: 825 km
apogee height: 866 km
right ascension of ascending node: 78.2536°
argument of perigee: 82.7323°
revolutions per day: 14.13958768
mean anomaly at epoch: 28.0282°
orbit number at epoch: 42136

The dashed part of the orbit path shows where the satellite is in the earth's shadow,  

DLR